Location: ČR
(50.0000°N, 15.0000°E)
Time: 07:54:48
(UTC+02:00)

A-11 Canister half - Pass Details

Date: 21 March 2026
Orbit: 1514 x 1685 km, 47.2° (Epoch: 18 April)

Event Time Altitude Azimuth Distance (km) Brightness Sun altitude
Rises 13:41:53 0° 244° (WSW) 4,817 12.3 36.4°
Reaches altitude 10° 13:44:58 10° 242° (WSW) 3,854 12.1 36.2°
Maximum altitude 13:54:45 68° 162° (SSE) 1,771 10.2 35.3°
Drops below altitude 10° 14:04:47 10° 83° (E) 3,950 10.9 34.4°
Sets 14:07:59 0° 81° (E) 4,942 11.3 34.1°
